Change the Weather History Date:

Saturday, March 30, 2013

  Actual Average (KCSM) Record (KCSM)
Temperature  
Mean Temperature 63 °F -  
Max Temperature 80 °F 63 °F 82 °F (2008)
Min Temperature 46 °F 41 °F 28 °F (2003)
Degree Days  
Heating Degree Days 2    
Growing Degree Days 13 (Base 50)    
Moisture  
Dew Point 47 °F    
Average Humidity 63    
Maximum Humidity 94    
Minimum Humidity 23    
Precipitation  
Precipitation 0.00 in - - ()
Sea Level Pressure  
Sea Level Pressure 29.94 in    
Wind  
Wind Speed 5 mph (SE)    
Max Wind Speed 12 mph    
Max Gust Speed -    
Visibility 8 miles    
Events Fog    
Averages and records for this station are not official NWS values.
T = Trace of Precipitation, MM = Missing Value Source: NWS Daily Summary

Daily Weather History Graph

Daily Weather History Graph

Search for Another Location

Airport or City:

Trip Planner

Search our weather history database for the weather conditions in past years. The results will help you decide how hot, cold, wet, or windy it might be!

Date:

Astronomy

Mar. 30, 2013 Rise Set
Actual Time 7:24 AM CDT 7:55 PM CDT
Civil Twilight 6:59 AM CDT 8:21 PM CDT
Nautical Twilight 6:29 AM CDT 8:51 PM CDT
Astronomical Twilight 5:58 AM CDT 9:22 PM CDT
Moon 11:55 PM CDT (3/30) 9:29 AM CDT (3/30)
Length of Visible Light 13h 22m
Length of Day
12h 31m
Waning Gibbous, 86% of the Moon is Illuminated
Mar 30
Waning Gibbous
Apr 2
Last Quarter
Apr 10
New
Apr 18
First Quarter
Apr 25
Full

Hourly Weather History & Observations

Time (CDT) Temp. Windchill Dew Point Humidity Pressure Visibility Wind Dir Wind Speed Gust Speed Precip Events Conditions
12:15 AM 60.8 °F - 51.8 °F 72% 30.01 in 10.0 mi SE 11.5 mph - N/A   Mostly Cloudy
12:35 AM 60.8 °F - 51.8 °F 72% 30.01 in 10.0 mi SE 8.1 mph - N/A   Scattered Clouds
12:55 AM 59.0 °F - 51.8 °F 77% 30.01 in 10.0 mi SSE 6.9 mph - N/A   Clear
1:15 AM 57.2 °F - 51.8 °F 82% 29.99 in 10.0 mi SSE 5.8 mph - N/A   Clear
1:35 AM 55.4 °F - 51.8 °F 88% 29.98 in 10.0 mi SSE 6.9 mph - N/A   Clear
1:55 AM 55.4 °F - 51.8 °F 88% 29.97 in 10.0 mi SSE 6.9 mph - N/A   Clear
2:15 AM 55.4 °F - 51.8 °F 88% 29.98 in 10.0 mi SSE 3.5 mph - N/A   Clear
2:35 AM 53.6 °F - 50.0 °F 88% 29.98 in 10.0 mi Calm Calm - N/A   Clear
2:55 AM 53.6 °F - 50.0 °F 88% 29.98 in 7.0 mi Calm Calm - N/A   Clear
3:15 AM 51.8 °F - 50.0 °F 94% 29.98 in 7.0 mi ENE 5.8 mph - N/A   Clear
3:35 AM 51.8 °F - 50.0 °F 94% 29.98 in 7.0 mi ESE 5.8 mph - N/A   Clear
4:15 AM 50.0 °F - 48.2 °F 94% 29.97 in 7.0 mi Calm Calm - N/A   Clear
4:35 AM 50.0 °F - 48.2 °F 94% 29.97 in 0.8 mi Calm Calm - N/A   Mist
4:55 AM 50.0 °F - 48.2 °F 94% 29.97 in 0.2 mi South 3.5 mph - N/A Fog Fog
5:15 AM 50.0 °F - 46.4 °F 87% 29.97 in 0.2 mi South 3.5 mph - N/A Fog Fog
5:35 AM 50.0 °F - 46.4 °F 87% 29.97 in 0.2 mi South 3.5 mph - N/A Fog Fog
5:55 AM 50.0 °F - 46.4 °F 87% 29.97 in 0.2 mi SSE 4.6 mph - N/A Fog Fog
6:15 AM 50.0 °F - 46.4 °F 87% 29.97 in 0.2 mi South 3.5 mph - N/A Fog Fog
6:35 AM 46.4 °F 45.2 °F 44.6 °F 93% 29.97 in 0.2 mi SSE 3.5 mph - N/A Fog Fog
6:55 AM 46.4 °F 42.9 °F 44.6 °F 93% 29.99 in 0.2 mi South 6.9 mph - N/A Fog Fog
7:15 AM 46.4 °F 43.5 °F 44.6 °F 93% 29.99 in 0.2 mi SSE 5.8 mph - N/A Fog Fog
7:35 AM 46.4 °F 44.3 °F 44.6 °F 93% 29.99 in 0.2 mi SSE 4.6 mph - N/A Fog Fog
7:55 AM 46.4 °F 44.3 °F 44.6 °F 93% 29.99 in 0.2 mi South 4.6 mph - N/A Fog Fog
8:15 AM 46.4 °F - 44.6 °F 93% 29.99 in 1.0 mi Calm Calm - N/A   Mist
8:35 AM 48.2 °F - 46.4 °F 93% 29.98 in 4.0 mi SSW 4.6 mph - N/A   Clear
8:55 AM 50.0 °F - 48.2 °F 94% 29.98 in 5.0 mi Calm Calm - N/A   Clear
9:15 AM 51.8 °F - 50.0 °F 94% 29.99 in 7.0 mi Calm Calm - N/A   Clear
9:35 AM 53.6 °F - 51.8 °F 94% 29.98 in 10.0 mi SW 3.5 mph - N/A   Clear
9:55 AM 55.4 °F - 53.6 °F 94% 29.99 in 10.0 mi NW 3.5 mph - N/A   Clear
10:15 AM 55.4 °F - 53.6 °F 94% 29.99 in 10.0 mi Calm Calm - N/A   Clear
10:35 AM 57.2 °F - 55.4 °F 94% 29.99 in 10.0 mi WSW 3.5 mph - N/A   Clear
10:55 AM 60.8 °F - 55.4 °F 82% 29.99 in 10.0 mi SW 5.8 mph - N/A   Clear
11:15 AM 62.6 °F - 53.6 °F 72% 29.98 in 10.0 mi Calm Calm - N/A   Clear
11:35 AM 64.4 °F - 53.6 °F 68% 29.98 in 10.0 mi WNW 6.9 mph - N/A   Clear
11:55 AM 66.2 °F - 53.6 °F 64% 29.98 in 10.0 mi West 5.8 mph - N/A   Clear
12:15 PM 68.0 °F - 53.6 °F 60% 29.98 in 10.0 mi WNW 3.5 mph - N/A   Clear
12:35 PM 68.0 °F - 51.8 °F 56% 29.98 in 10.0 mi Calm Calm - N/A   Clear
12:55 PM 71.6 °F - 50.0 °F 46% 29.97 in 10.0 mi West 3.5 mph - N/A   Clear
1:15 PM 71.6 °F - 48.2 °F 43% 29.96 in 10.0 mi North 3.5 mph - N/A   Clear
1:35 PM 73.4 °F - 50.0 °F 44% 29.95 in 10.0 mi Calm Calm - N/A   Clear
2:15 PM 77.0 °F - 46.4 °F 34% 29.94 in 10.0 mi NNE 5.8 mph - N/A   Clear
2:35 PM 77.0 °F - 46.4 °F 34% 29.92 in 10.0 mi Calm Calm - N/A   Clear
2:55 PM 77.0 °F - 46.4 °F 34% 29.92 in 10.0 mi NE 3.5 mph - N/A   Clear
3:15 PM 77.0 °F - 46.4 °F 34% 29.91 in 10.0 mi Calm Calm - N/A   Clear
3:35 PM 78.8 °F - 44.6 °F 30% 29.90 in 10.0 mi East 8.1 mph - N/A   Clear
3:55 PM 78.8 °F - 42.8 °F 28% 29.90 in 10.0 mi Calm Calm - N/A   Clear
4:15 PM 78.8 °F - 42.8 °F 28% 29.89 in 10.0 mi NNE 5.8 mph - N/A   Clear
4:35 PM 80.6 °F - 44.6 °F 28% 29.89 in 10.0 mi SE 5.8 mph - N/A   Clear
4:55 PM 78.8 °F - 41.0 °F 26% 29.88 in 10.0 mi Calm Calm - N/A   Clear
5:15 PM 80.6 °F - 41.0 °F 24% 29.88 in 10.0 mi East 5.8 mph - N/A   Clear
5:35 PM 78.8 °F - 39.2 °F 24% 29.87 in 10.0 mi NE 4.6 mph - N/A   Clear
5:55 PM 80.6 °F - 41.0 °F 24% 29.87 in 10.0 mi Calm Calm - N/A   Clear
6:15 PM 78.8 °F - 37.4 °F 23% 29.87 in 10.0 mi ENE 5.8 mph - N/A   Clear
6:35 PM 78.8 °F - 37.4 °F 23% 29.87 in 10.0 mi Calm Calm - N/A   Clear
6:55 PM 77.0 °F - 37.4 °F 24% 29.87 in 10.0 mi East 3.5 mph - N/A   Clear
7:15 PM 78.8 °F - 37.4 °F 23% 29.87 in 10.0 mi Calm Calm - N/A   Clear
7:35 PM 75.2 °F - 42.8 °F 31% 29.87 in 10.0 mi SSE 5.8 mph - N/A   Clear
7:55 PM 71.6 °F - 44.6 °F 38% 29.87 in 10.0 mi South 4.6 mph - N/A   Clear
8:15 PM 71.6 °F - 44.6 °F 38% 29.88 in 10.0 mi Calm Calm - N/A   Clear
8:35 PM 71.6 °F - 44.6 °F 38% 29.88 in 10.0 mi SE 4.6 mph - N/A   Clear
8:55 PM 68.0 °F - 46.4 °F 46% 29.88 in 10.0 mi SSE 4.6 mph - N/A   Clear
9:15 PM 66.2 °F - 46.4 °F 49% 29.88 in 10.0 mi South 4.6 mph - N/A   Clear
9:35 PM 66.2 °F - 46.4 °F 49% 29.90 in 10.0 mi Calm Calm - N/A   Clear
9:55 PM 64.4 °F - 46.4 °F 52% 29.90 in 10.0 mi Calm Calm - N/A   Clear
10:15 PM 60.8 °F - 46.4 °F 59% 29.91 in 10.0 mi North 8.1 mph - N/A   Clear
10:35 PM 60.8 °F - 46.4 °F 59% 29.92 in 10.0 mi East 5.8 mph - N/A   Clear
10:55 PM 62.6 °F - 46.4 °F 55% 29.91 in 10.0 mi East 5.8 mph - N/A   Clear
11:15 PM 64.4 °F - 46.4 °F 52% 29.91 in 10.0 mi East 3.5 mph - N/A   Clear
11:35 PM 60.8 °F - 46.4 °F 59% 29.91 in 10.0 mi ENE 5.8 mph - N/A   Clear
11:55 PM 59.0 °F - 48.2 °F 67% 29.91 in 10.0 mi North 4.6 mph - N/A   Clear